Weather History for Ohio State University, OH

Change the Weather History Date:

Wednesday, June 26, 2013

  Actual Average Record
Temperature  
Mean Temperature 75 °F -  
Max Temperature 86 °F 81 °F 91 °F (1998)
Min Temperature 66 °F 61 °F 51 °F (2004)
Cooling Degree Days 10    
Growing Degree Days 25 (Base 50)    
Moisture  
Dew Point 68 °F    
Average Humidity 83    
Maximum Humidity 100    
Minimum Humidity 58    
Precipitation  
Precipitation 0.78 in - - ()
Sea Level Pressure  
Sea Level Pressure 29.88 in    
Wind  
Wind Speed 8 mph (SSW)    
Max Wind Speed 18 mph    
Max Gust Speed 25 mph    
Visibility 8 miles    
Events Rain , Thunderstorm    
Averages and records for this station are not official NWS values.
T = Trace of Precipitation, MM = Missing Value Source: NWS Daily Summary

Daily Weather History Graph

Daily Weather History Graph

Search for Another Location

Airport:

Trip Planner

Search our weather history database for the weather conditions in past years. The results will help you decide how hot, cold, wet, or windy it might be!

Date:

Astronomy

Jun. 26, 2013 Rise Set
Actual Time 6:04 AM EDT 9:05 PM EDT
Civil Twilight 5:32 AM EDT 9:38 PM EDT
Nautical Twilight 4:50 AM EDT 10:20 PM EDT
Astronomical Twilight 4:01 AM EDT 11:08 PM EDT
Moon 11:27 PM EDT 9:55 AM EDT
Length of Visible Light 16h 06m
Length of Day
15h 00m
Waning Gibbous, 85% of the Moon is Illuminated
Jun 26
Waning Gibbous
Jun 30
Last Quarter
Jul 8
New
Jul 15
First Quarter
Jul 22
Full

Hourly Weather History & Observations

Time (EDT) Temp. Heat Index Dew Point Humidity Pressure Visibility Wind Dir Wind Speed Gust Speed Precip Events Conditions
12:27 AM 80.6 °F 83.9 °F 69.8 °F 70% 29.92 in 10.0 mi SSW 9.2 mph - N/A Thunderstorm Mostly Cloudy
12:53 AM 80.1 °F 83.2 °F 70.0 °F 71% 29.88 in 9.0 mi SW 9.2 mph - N/A Thunderstorm Mostly Cloudy
1:14 AM 80.6 °F 84.6 °F 71.6 °F 74% 29.90 in 9.0 mi SW 10.4 mph - N/A   Mostly Cloudy
1:41 AM 78.8 °F - 71.6 °F 78% 29.90 in 9.0 mi SW 9.2 mph - N/A Thunderstorm Clear
1:53 AM 79.0 °F - 71.1 °F 77% 29.88 in 9.0 mi West 9.2 mph - N/A Thunderstorm Scattered Clouds
2:20 AM 71.6 °F - 64.4 °F 78% 29.92 in 10.0 mi North 18.4 mph 25.3 mph N/A Thunderstorm Mostly Cloudy
2:41 AM 69.8 °F - 64.4 °F 83% 29.93 in 10.0 mi North 10.4 mph 21.9 mph N/A Thunderstorm Overcast
2:53 AM 69.1 °F - 66.0 °F 90% 29.89 in 8.0 mi North 9.2 mph - 0.02 in Rain , Thunderstorm Light Thunderstorms and Rain
3:08 AM 68.0 °F - 66.2 °F 94% 29.96 in 1.5 mi NW 6.9 mph - 0.21 in Rain , Thunderstorm Heavy Thunderstorms and Rain
3:13 AM 68.0 °F - 66.2 °F 94% 29.95 in 0.8 mi ESE 3.5 mph - 0.30 in Rain , Thunderstorm Heavy Thunderstorms and Rain
3:18 AM 68.0 °F - 66.2 °F 94% 29.93 in 1.0 mi NE 5.8 mph - 0.39 in Rain , Thunderstorm Heavy Thunderstorms and Rain
3:25 AM 66.2 °F - 66.2 °F 100% 29.91 in 3.0 mi NE 10.4 mph - 0.39 in Rain , Thunderstorm Light Thunderstorms and Rain
3:42 AM 66.2 °F - 66.2 °F 100% 29.91 in 10.0 mi East 4.6 mph - 0.39 in   Mostly Cloudy
3:49 AM 66.2 °F - 66.2 °F 100% 29.90 in 10.0 mi ESE 4.6 mph - 0.39 in   Scattered Clouds
3:53 AM 66.9 °F - 66.0 °F 97% 29.88 in 10.0 mi East 5.8 mph - 0.39 in   Scattered Clouds
4:53 AM 68.0 °F - 66.9 °F 96% 29.93 in 1.2 mi WSW 8.1 mph - 0.21 in Rain Heavy Rain
5:06 AM 68.0 °F - 66.2 °F 94% 29.94 in 3.0 mi South 3.5 mph - 0.05 in Rain Light Rain
5:53 AM 68.0 °F - 66.0 °F 93% 29.91 in 10.0 mi South 6.9 mph - 0.06 in   Overcast
6:53 AM 68.0 °F - 66.9 °F 96% 29.91 in 8.0 mi SSW 4.6 mph - 0.00 in   Mostly Cloudy
7:32 AM 69.8 °F - 66.2 °F 88% 29.91 in 10.0 mi SSW 4.6 mph - N/A   Scattered Clouds
7:53 AM 70.0 °F - 66.9 °F 90% 29.88 in 10.0 mi Calm Calm - N/A   Mostly Cloudy
8:53 AM 70.0 °F - 68.0 °F 93% 29.90 in 10.0 mi WNW 5.8 mph - N/A   Overcast
9:53 AM 73.9 °F - 68.0 °F 82% 29.91 in 10.0 mi SW 8.1 mph - N/A   Mostly Cloudy
10:53 AM 78.1 °F - 69.1 °F 74% 29.90 in 10.0 mi SW 4.6 mph - N/A   Scattered Clouds
11:53 AM 80.1 °F 82.7 °F 68.0 °F 67% 29.91 in 10.0 mi West 8.1 mph - N/A   Scattered Clouds
12:53 PM 82.9 °F 85.8 °F 68.0 °F 60% 29.90 in 10.0 mi WSW 10.4 mph - N/A   Scattered Clouds
1:53 PM 84.0 °F 87.0 °F 68.0 °F 58% 29.88 in 10.0 mi SSW 9.2 mph - N/A   Mostly Cloudy
2:53 PM 84.9 °F 88.8 °F 69.1 °F 59% 29.86 in 10.0 mi SSW 10.4 mph - 0.00 in   Mostly Cloudy
3:53 PM 84.9 °F 88.8 °F 69.1 °F 59% 29.83 in 10.0 mi SW 8.1 mph - N/A   Scattered Clouds
4:53 PM 82.9 °F 86.5 °F 69.1 °F 63% 29.81 in 10.0 mi South 13.8 mph - N/A   Mostly Cloudy
5:53 PM 82.9 °F 86.5 °F 69.1 °F 63% 29.81 in 10.0 mi SW 13.8 mph 20.7 mph N/A   Scattered Clouds
6:30 PM 69.8 °F - 66.2 °F 88% 29.82 in 2.5 mi SW 4.6 mph - 0.09 in Rain Rain
6:38 PM 71.6 °F - 66.2 °F 83% 29.81 in 10.0 mi South 4.6 mph - 0.09 in Rain Light Rain
6:53 PM 72.0 °F - 66.0 °F 81% 29.80 in 10.0 mi South 5.8 mph - 0.09 in Rain Light Rain
7:53 PM 72.0 °F - 68.0 °F 87% 29.80 in 10.0 mi South 8.1 mph - 0.00 in   Mostly Cloudy
8:53 PM 71.1 °F - 68.0 °F 90% 29.81 in 10.0 mi South 6.9 mph - 0.01 in   Clear
9:53 PM 71.1 °F - 66.9 °F 87% 29.80 in 10.0 mi South 6.9 mph - N/A   Partly Cloudy
10:34 PM 71.6 °F - 68.0 °F 88% 29.81 in 10.0 mi SE 5.8 mph - N/A   Partly Cloudy
10:53 PM 70.0 °F - 68.0 °F 93% 29.80 in 10.0 mi SSE 4.6 mph - N/A   Partly Cloudy
11:53 PM 70.0 °F - 66.9 °F 90% 29.80 in 10.0 mi SSE 8.1 mph - 0.00 in Rain Light Rain